EN

Hourly Weather Muyinga

Today, 1 October, Thursday

Time Temperature Precipitation Wind Pressure Humidity
00:00 +15°C° 0 mm 0 mps 627 mmHg 84%
01:00 +15°C° 0 mm 0 mps 626 mmHg 85%
02:00 +15°C° 0 mm 0 mps 626 mmHg 86%
03:00 +15°C° 0 mm 0 mps 626 mmHg 85%
04:00 +15°C° 0 mm 0 mps 626 mmHg 85%
05:00 +15°C° 0 mm 0 mps 626 mmHg 85%
06:00 +17°C° 0 mm 0 mps 627 mmHg 77%
07:00 +19°C° 0 mm 0 mps 629 mmHg 69%
08:00 +22°C° 0 mm 0 mps 630 mmHg 61%
09:00 +25°C° 0.2 mm 1 mps 630 mmHg 56%
10:00 +27°C° 0.2 mm 1 mps 630 mmHg 50%
11:00 +28°C° 0.2 mm 2 mps 630 mmHg 44%
12:00 +28°C° 0.2 mm 2 mps 629 mmHg 46%
13:00 +28°C° 0.2 mm 3 mps 628 mmHg 47%
14:00 +27°C° 0.2 mm 3 mps 627 mmHg 49%
15:00 +26°C° 0.6 mm 3 mps 627 mmHg 54%
16:00 +25°C° 0.6 mm 3 mps 627 mmHg 59%
17:00 +24°C° 0.6 mm 3 mps 627 mmHg 63%
18:00 +23°C° 0.3 mm 2 mps 627 mmHg 68%
19:00 +22°C° 0.3 mm 1 mps 627 mmHg 72%
20:00 +18°C° 0.3 mm 0 mps 627 mmHg 77%
21:00 +18°C° 0.3 mm 0 mps 627 mmHg 79%
22:00 +17°C° 0.3 mm 0 mps 627 mmHg 81%
23:00 +19°C° 0.3 mm 1 mps 627 mmHg 83%

Tomorrow, 2 October, Friday

Time Temperature Precipitation Wind Pressure Humidity
00:00 +18°C° 0 mm 1 mps 626 mmHg 85%
01:00 +18°C° 0 mm 1 mps 626 mmHg 87%
02:00 +16°C° 0 mm 1 mps 625 mmHg 89%
03:00 +16°C° 0 mm 1 mps 626 mmHg 90%
04:00 +16°C° 0 mm 1 mps 626 mmHg 90%
05:00 +15°C° 0 mm 0 mps 626 mmHg 91%
06:00 +17°C° 0 mm 0 mps 627 mmHg 82%
07:00 +19°C° 0 mm 0 mps 629 mmHg 74%
08:00 +23°C° 0 mm 1 mps 630 mmHg 66%
09:00 +25°C° 0.1 mm 1 mps 630 mmHg 57%
10:00 +27°C° 0.1 mm 2 mps 630 mmHg 48%
11:00 +29°C° 0.1 mm 3 mps 631 mmHg 39%
12:00 +29°C° 0 mm 3 mps 630 mmHg 38%
13:00 +29°C° 0 mm 3 mps 629 mmHg 38%
14:00 +29°C° 0 mm 3 mps 628 mmHg 37%
15:00 +28°C° 0 mm 2 mps 628 mmHg 39%
16:00 +28°C° 0 mm 2 mps 628 mmHg 41%
17:00 +27°C° 0 mm 2 mps 628 mmHg 44%
18:00 +25°C° 0 mm 1 mps 628 mmHg 47%
19:00 +24°C° 0 mm 1 mps 628 mmHg 51%
20:00 +20°C° 0 mm 0 mps 628 mmHg 55%
21:00 +20°C° 0 mm 0 mps 627 mmHg 57%
22:00 +19°C° 0 mm 0 mps 627 mmHg 59%
23:00 +21°C° 0 mm 1 mps 627 mmHg 61%

Day after tomorrow, 3 October, Saturday

Time Temperature Precipitation Wind Pressure Humidity
00:00 +20°C° 0 mm 1 mps 626 mmHg 64%
01:00 +19°C° 0 mm 1 mps 626 mmHg 66%
02:00 +19°C° 0 mm 1 mps 626 mmHg 69%
03:00 +18°C° 0 mm 1 mps 626 mmHg 70%
04:00 +16°C° 0 mm 0 mps 626 mmHg 72%
05:00 +16°C° 0 mm 0 mps 626 mmHg 73%
06:00 +20°C° 0 mm 1 mps 628 mmHg 66%
07:00 +21°C° 0 mm 2 mps 629 mmHg 59%
08:00 +24°C° 0 mm 3 mps 630 mmHg 52%
09:00 +26°C° 0 mm 3 mps 630 mmHg 47%
10:00 +28°C° 0 mm 3 mps 631 mmHg 42%
11:00 +29°C° 0 mm 4 mps 631 mmHg 37%
12:00 +29°C° 0 mm 4 mps 630 mmHg 36%
13:00 +29°C° 0 mm 3 mps 629 mmHg 36%
14:00 +29°C° 0 mm 3 mps 628 mmHg 36%
15:00 +28°C° 0 mm 3 mps 628 mmHg 38%
16:00 +27°C° 0 mm 2 mps 627 mmHg 41%
17:00 +27°C° 0 mm 2 mps 627 mmHg 43%
18:00 +25°C° 0 mm 2 mps 627 mmHg 47%
19:00 +23°C° 0 mm 1 mps 627 mmHg 51%
20:00 +22°C° 0 mm 1 mps 627 mmHg 55%
21:00 +21°C° 0 mm 1 mps 627 mmHg 57%
22:00 +20°C° 0 mm 1 mps 627 mmHg 60%
23:00 +20°C° 0 mm 1 mps 627 mmHg 62%

4 October, Sunday

Time Temperature Precipitation Wind Pressure Humidity
00:00 +19°C° 0 mm 1 mps 626 mmHg 65%
01:00 +19°C° 0 mm 1 mps 626 mmHg 68%
02:00 +18°C° 0 mm 1 mps 626 mmHg 71%
03:00 +18°C° 0 mm 1 mps 626 mmHg 72%
04:00 +18°C° 0 mm 1 mps 626 mmHg 73%
05:00 +15°C° 0 mm 0 mps 626 mmHg 75%
06:00 +18°C° 0 mm 0 mps 628 mmHg 66%
07:00 +20°C° 0 mm 0 mps 629 mmHg 58%
08:00 +23°C° 0 mm 0 mps 630 mmHg 49%
09:00 +27°C° 0 mm 1 mps 631 mmHg 44%
10:00 +29°C° 0 mm 1 mps 631 mmHg 39%
11:00 +30°C° 0 mm 2 mps 631 mmHg 33%
12:00 +30°C° 0 mm 2 mps 630 mmHg 33%
13:00 +30°C° 0 mm 2 mps 629 mmHg 34%
14:00 +29°C° 0 mm 2 mps 628 mmHg 34%
15:00 +29°C° 0 mm 2 mps 628 mmHg 35%
16:00 +28°C° 0 mm 2 mps 628 mmHg 36%
17:00 +28°C° 0 mm 2 mps 628 mmHg 38%
18:00 +27°C° 0 mm 1 mps 628 mmHg 41%
19:00 +25°C° 0 mm 1 mps 628 mmHg 44%
20:00 +24°C° 0 mm 1 mps 628 mmHg 47%
21:00 +23°C° 0 mm 1 mps 628 mmHg 50%
22:00 +22°C° 0 mm 1 mps 627 mmHg 53%
23:00 +21°C° 0 mm 1 mps 627 mmHg 56%

5 October, Monday

Time Temperature Precipitation Wind Pressure Humidity
00:00 +20°C° 0 mm 1 mps 627 mmHg 59%
01:00 +20°C° 0 mm 1 mps 626 mmHg 63%
02:00 +19°C° 0 mm 1 mps 626 mmHg 66%
03:00 +19°C° 0 mm 1 mps 626 mmHg 67%
04:00 +16°C° 0 mm 0 mps 626 mmHg 69%
05:00 +16°C° 0 mm 0 mps 626 mmHg 70%
06:00 +20°C° 0 mm 1 mps 628 mmHg 63%
07:00 +22°C° 0 mm 1 mps 629 mmHg 56%
08:00 +25°C° 0 mm 1 mps 630 mmHg 49%
09:00 +27°C° 0 mm 1 mps 630 mmHg 43%
10:00 +29°C° 0 mm 2 mps 631 mmHg 37%
11:00 +31°C° 0 mm 2 mps 631 mmHg 31%
12:00 +31°C° 0 mm 2 mps 630 mmHg 30%
13:00 +31°C° 0 mm 2 mps 629 mmHg 29%
14:00 +30°C° 0 mm 2 mps 629 mmHg 27%
15:00 +30°C° 0 mm 2 mps 628 mmHg 29%
16:00 +29°C° 0 mm 2 mps 628 mmHg 31%
17:00 +28°C° 0 mm 2 mps 628 mmHg 33%
18:00 +27°C° 0 mm 1 mps 628 mmHg 38%
19:00 +25°C° 0 mm 1 mps 628 mmHg 43%
20:00 +21°C° 0 mm 0 mps 628 mmHg 48%
21:00 +22°C° 0 mm 1 mps 628 mmHg 51%
22:00 +22°C° 0 mm 1 mps 628 mmHg 54%
23:00 +21°C° 0 mm 1 mps 628 mmHg 56%

6 October, Tuesday

Time Temperature Precipitation Wind Pressure Humidity
00:00 +21°C° 0 mm 1 mps 627 mmHg 59%
01:00 +20°C° 0 mm 1 mps 627 mmHg 62%
02:00 +20°C° 0 mm 1 mps 626 mmHg 65%
03:00 +19°C° 0 mm 1 mps 626 mmHg 68%
04:00 +17°C° 0 mm 0 mps 626 mmHg 71%
05:00 +16°C° 0 mm 0 mps 626 mmHg 74%
06:00 +20°C° 0 mm 1 mps 628 mmHg 67%
07:00 +22°C° 0 mm 1 mps 629 mmHg 60%
08:00 +25°C° 0 mm 1 mps 630 mmHg 53%
09:00 +26°C° 0.7 mm 1 mps 630 mmHg 49%
10:00 +27°C° 0.7 mm 2 mps 631 mmHg 46%
11:00 +29°C° 0.7 mm 2 mps 631 mmHg 42%
12:00 +29°C° 0.1 mm 2 mps 630 mmHg 39%
13:00 +30°C° 0.1 mm 2 mps 629 mmHg 36%
14:00 +30°C° 0.1 mm 2 mps 629 mmHg 33%
15:00 +29°C° 0 mm 2 mps 628 mmHg 37%
16:00 +27°C° 0 mm 2 mps 628 mmHg 42%
17:00 +26°C° 0 mm 2 mps 627 mmHg 46%
18:00 +25°C° 0 mm 2 mps 627 mmHg 51%
19:00 +24°C° 0 mm 1 mps 627 mmHg 56%
20:00 +22°C° 0 mm 1 mps 628 mmHg 60%
21:00 +21°C° 0 mm 1 mps 628 mmHg 65%
22:00 +20°C° 0 mm 1 mps 627 mmHg 70%
23:00 +19°C° 0 mm 1 mps 627 mmHg 76%
Show more